New Bedford Regional Airport
KEWB : rendu visible

Aérodrome :











RETROUVEZ-NOUS SUR...

 
LOGIN :

S'inscrire | Disclaimer

   EN    FR    IT 

 









Légende :    VFR   VFR Marginal   IFR   IFR Intensif   IFR Très Intensif
Visi : 
Plafond : 
>= 8 km
>= 3000ft
5 à 8 km
1000 à 3000 ft
1500m à 5 km
500 à 1000 ft
800 à 1500m
200 à 500 ft
< 800m
< 200 ft
Symboles :   Orages  Brouillard  Fortes neiges  Fortes précipitations  Vent > 20 kt






- Altitude de l'aérodrome : 80 ft
- Code IATA : EWB


KEWB - New Bedford Regional

DERNIER METAR :
  • 171153Z 34004KT 10SM OVC034 M02/M08 A3039 RMK AO2 SLP290 T10221083 11022 21039 58008

METARs EXPIRÉS :
  • 171053Z AUTO 34006KT 10SM BKN035 M03/M09 A3039 RMK AO2 SLP291 T10281089
  • 170953Z AUTO 35004KT 10SM BKN036 M03/M10 A3041 RMK AO2 SLP299 T10331100

TAF N/A



MET'MAP, la Météo Aéronautique d'un coup d'oeil ! - Copyright ORBIFLY Décembre 2007 - Disclaimer

ORBIFLY MET'MAP TEAM :

Programmation & Développement : Alexandra Zaïnal
Conception & Développement : Baudouin d'Aumeries
Co-Programmation & Développement : Marc-Olivier Méhu
Soutien technique & logistique : Manuel Goepfert

Contact : metmap@orbifly.com




SOURCES & CREDITS :

   NOAA       Earth
Advisory